Date String (YYYY-MM-DD hh:mm:ss) UTC,Instrument flags,Ambient pressure (hPa),Sample flow (lpm),Bypass flow (lpm),Sample temperature (°C),Ambient temperature (°C),ASC tube jacket temperature (°C),LED temperature (°C),Box temperature (°C),Sample RH (%),Span deviation,Mass concentration (μg/m³),Mass concentration (μg/m³),Mass concentration (μg/m³)
DateTimeUTC,F1_M11,P_M11,Q1_M11,Q2_M11,T1_M11,T2_M11,T3_M11,T4_M11,T5_M11,U1_M11,ZSPAN_M11,X2_M11,X0_M11,X1_M11
2021-09-21 22:00:00,,0837.7,5.00,0.00,29.9,29.2,00.0,38.8,31.7,12.4,0000.0,0004.97,0010.05,0004.54
2021-09-21 22:01:00,,0837.7,5.00,0.00,29.9,29.2,00.0,38.8,31.7,12.5,0000.0,0004.89,0010.14,0004.44
2021-09-21 22:02:00,,0837.6,5.00,0.00,29.9,28.7,00.0,38.8,31.6,12.5,0000.0,0004.84,0010.26,0004.37
2021-09-21 22:03:00,,0837.6,5.01,0.00,29.7,26.8,00.0,38.8,31.0,12.5,0000.0,0004.81,0009.85,0004.33
2021-09-21 22:04:00,,0837.6,5.00,0.00,29.6,26.4,00.0,38.8,30.9,12.7,0000.0,0004.79,0010.23,0004.28
2021-09-21 22:05:00,,0837.6,5.00,0.00,29.5,26.7,00.0,38.7,30.9,12.6,0000.0,0004.76,0010.49,0004.25
2021-09-21 22:06:00,,0837.5,4.99,0.00,29.5,27.1,00.0,38.7,31.1,12.6,0000.0,0004.79,0010.62,0004.25
2021-09-21 22:07:00,,0837.6,5.00,0.00,29.5,27.5,00.0,38.7,31.2,12.6,0000.0,0004.82,0011.39,0004.25
2021-09-21 22:08:00,,0837.6,4.98,0.00,29.5,27.8,00.0,38.7,31.2,12.6,0000.0,0004.83,0012.46,0004.26
2021-09-21 22:09:00,,0837.6,5.01,0.00,29.5,28.0,00.0,38.6,31.2,12.6,0000.0,0004.87,0013.70,0004.27
2021-09-21 22:10:00,,0837.7,4.98,0.00,29.5,28.2,00.0,38.6,31.3,12.8,0000.0,0004.92,0014.81,0004.31
2021-09-21 22:11:00,,0837.7,4.99,0.00,29.5,28.3,00.0,38.6,31.3,13.1,0000.0,0005.01,0014.88,0004.39
2021-09-21 22:12:00,,0837.8,5.00,0.00,29.5,28.5,00.0,38.6,31.3,13.3,0000.0,0005.06,0015.21,0004.43
2021-09-21 22:13:00,,0837.8,5.00,0.00,29.5,28.6,00.0,38.7,31.3,12.9,0000.0,0005.11,0015.22,0004.47
2021-09-21 22:14:00,,0837.8,5.00,0.00,29.6,28.6,00.0,38.7,31.3,12.9,0000.0,0005.16,0015.13,0004.54
2021-09-21 22:15:00,,0837.8,5.00,0.00,29.6,28.7,00.0,38.7,31.4,12.8,0000.0,0005.22,0014.77,0004.64
2021-09-21 22:16:00,,0837.7,5.00,0.00,29.6,28.7,00.0,38.7,31.4,12.8,0000.0,0005.30,0015.34,0004.72
2021-09-21 22:17:00,,0837.6,4.99,0.00,29.6,28.8,00.0,38.7,31.4,12.8,0000.0,0005.30,0015.57,0004.76
2021-09-21 22:18:00,,0837.6,5.00,0.00,29.6,28.8,00.0,38.7,31.5,12.8,0000.0,0005.33,0014.77,0004.82
2021-09-21 22:19:00,,0837.6,5.01,0.00,29.7,28.9,00.0,38.7,31.5,12.9,0000.0,0005.35,0013.28,0004.86
2021-09-21 22:20:00,,0837.7,4.99,0.00,29.7,29.0,00.0,38.7,31.6,12.9,0000.0,0005.36,0011.88,0004.89
2021-09-21 22:21:00,,0837.7,5.00,0.00,29.7,29.0,00.0,38.7,31.6,12.7,0000.0,0005.32,0010.60,0004.87
2021-09-21 22:22:00,,0837.7,5.01,0.00,29.8,29.1,00.0,38.7,31.6,12.8,0000.0,0005.25,0010.47,0004.81
2021-09-21 22:23:00,,0837.8,4.99,0.00,29.8,29.1,00.0,38.8,31.6,12.5,0000.0,0005.22,0010.44,0004.83
2021-09-21 22:24:00,,0837.7,5.01,0.00,29.8,29.1,00.0,38.8,31.7,12.4,0000.0,0005.27,0010.87,0004.85
2021-09-21 22:25:00,,0837.7,5.00,0.00,29.8,29.2,00.0,38.8,31.7,12.4,0000.0,0005.25,0011.23,0004.84
2021-09-21 22:26:00,,0837.7,4.99,0.00,29.9,29.2,00.0,38.8,31.7,12.4,0000.0,0005.19,0011.03,0004.78
2021-09-21 22:27:00,,0837.7,5.00,0.00,29.8,27.7,00.0,38.8,31.3,12.4,0000.0,0005.16,0010.24,0004.74
2021-09-21 22:28:00,,0837.6,4.99,0.00,29.7,26.4,00.0,38.8,30.9,12.6,0000.0,0005.12,0009.94,0004.68
2021-09-21 22:29:00,,0837.5,4.99,0.00,29.6,26.5,00.0,38.7,30.9,12.7,0000.0,0005.05,0009.92,0004.61
2021-09-21 22:30:00,,0837.6,5.00,0.00,29.5,26.9,00.0,38.7,31.0,12.7,0000.0,0005.01,0010.48,0004.56
2021-09-21 22:31:00,,0837.7,5.01,0.00,29.5,27.3,00.0,38.7,31.1,12.7,0000.0,0005.02,0010.98,0004.54
2021-09-21 22:32:00,,0837.7,4.99,0.00,29.5,27.6,00.0,38.7,31.2,12.7,0000.0,0005.08,0011.18,0004.56
2021-09-21 22:33:00,,0837.7,5.01,0.00,29.5,27.9,00.0,38.6,31.2,12.7,0000.0,0005.12,0011.19,0004.59
2021-09-21 22:34:00,,0837.7,5.00,0.00,29.5,28.1,00.0,38.6,31.3,12.7,0000.0,0005.11,0010.63,0004.57
2021-09-21 22:35:00,,0837.7,5.01,0.00,29.6,28.3,00.0,38.6,31.3,12.7,0000.0,0005.07,0010.10,0004.54
2021-09-21 22:36:00,,0837.7,5.00,0.00,29.6,28.5,00.0,38.7,31.4,12.8,0000.0,0005.04,0009.60,0004.53
2021-09-21 22:37:00,,0837.7,4.99,0.00,29.6,28.6,00.0,38.7,31.4,12.7,0000.0,0005.06,0010.18,0004.53
2021-09-21 22:38:00,,0837.7,5.01,0.00,29.7,28.7,00.0,38.7,31.5,12.6,0000.0,0005.05,0010.75,0004.52
2021-09-21 22:39:00,,0837.8,4.99,0.00,29.7,28.8,00.0,38.7,31.5,12.6,0000.0,0005.04,0010.71,0004.51
2021-09-21 22:40:00,,0837.8,4.99,0.00,29.8,28.9,00.0,38.7,31.6,12.6,0000.0,0005.02,0010.94,0004.49
2021-09-21 22:41:00,,0837.8,5.01,0.00,29.8,29.0,00.0,38.7,31.6,12.6,0000.0,0004.96,0010.60,0004.45
2021-09-21 22:42:00,,0837.8,5.00,0.00,29.8,29.0,00.0,38.8,31.7,12.7,0000.0,0004.88,0010.14,0004.38
2021-09-21 22:43:00,,0837.8,5.00,0.00,29.9,29.1,00.0,38.8,31.7,12.6,0000.0,0004.81,0009.86,0004.32
2021-09-21 22:44:00,,0837.8,5.00,0.00,29.9,29.1,00.0,38.8,31.7,12.3,0000.0,0004.79,0009.91,0004.28
2021-09-21 22:45:00,,0837.8,4.99,0.00,29.9,29.2,00.0,38.8,31.7,12.2,0000.0,0004.77,0009.96,0004.25
2021-09-21 22:46:00,,0837.8,5.02,0.00,29.9,29.2,00.0,38.9,31.8,12.3,0000.0,0004.72,0010.01,0004.19
2021-09-21 22:47:00,,0837.8,5.00,0.00,30.0,29.2,00.0,38.9,31.8,12.2,0000.0,0004.69,0010.26,0004.13
2021-09-21 22:48:00,,0837.8,5.01,0.00,29.9,28.5,00.0,38.9,31.5,12.3,0000.0,0004.65,0010.21,0004.06
2021-09-21 22:49:00,,0837.8,4.99,0.00,29.8,26.6,00.0,38.8,31.0,12.4,0000.0,0004.62,0010.06,0004.01
2021-09-21 22:50:00,,0837.8,4.99,0.00,29.7,26.4,00.0,38.8,30.9,12.4,0000.0,0004.56,0010.11,0003.97
2021-09-21 22:51:00,,0837.8,5.00,0.00,29.6,26.8,00.0,38.8,31.0,12.6,0000.0,0004.50,0010.98,0003.92
2021-09-21 22:52:00,,0837.8,5.00,0.00,29.6,27.2,00.0,38.7,31.1,12.4,0000.0,0004.53,0011.28,0003.92
2021-09-21 22:53:00,,0837.8,5.01,0.00,29.6,27.6,00.0,38.7,31.2,12.3,0000.0,0004.57,0011.60,0003.95
2021-09-21 22:54:00,,0837.8,4.99,0.00,29.6,27.9,00.0,38.7,31.3,12.4,0000.0,0004.56,0011.90,0003.97
2021-09-21 22:55:00,,0837.8,5.00,0.00,29.6,28.1,00.0,38.7,31.4,12.4,0000.0,0004.52,0012.14,0003.97
2021-09-21 22:56:00,,0837.8,5.00,0.00,29.7,28.3,00.0,38.7,31.4,12.4,0000.0,0004.51,0012.44,0003.96
2021-09-21 22:57:00,,0837.8,5.00,0.00,29.7,28.5,00.0,38.7,31.5,12.3,0000.0,0004.49,0012.70,0003.95
2021-09-21 22:58:00,,0837.8,5.00,0.00,29.7,28.6,00.0,38.7,31.6,12.3,0000.0,0004.47,0013.06,0003.95
2021-09-21 22:59:00,,0837.8,5.00,0.00,29.7,28.7,00.0,38.7,31.6,12.2,0000.0,0004.46,0012.82,0003.96
